Flag for Japan Weather past 2 weeks in Sagamihara, Japan

Now
77 °F

Clear.


Feels Like: 79 °F
Forecast: 77 / 93 °F
Wind: 3 mph from North

Location: Yokota Ab

Current Time: Jul 26, 2014 at 4:11:10 AM

Latest Report: Jul 26, 2014 at 2:58 AM


Visibility: 7 mi

Pressure: 29.94 "Hg

Humidity: 90%

Dew point: 74 °F

Location of SagamiharaLocation

Historic Weather in Sagamihara — Graph

°F

Sagamihara temperature yesterday

Maximum temperature yesterday: 94 °F (at 2:58 PM)
Minimum temperature yesterday: 76 °F (at 4:58 AM)
Average temperature yesterday: 85 °F

Past Weeks' High & Low Weather Summary

 TemperatureHumidityPressure
High94 °F (Jul 25, 2:58 PM)100% (Jul 11, 2:00 AM)30.03 "Hg (Jul 11, 2:00 AM)
Low67 °F (Jul 21, 12:58 AM)52% (Jul 12, 1:58 PM)29.29 "Hg (Jul 11, 2:58 AM)
Average79 °F80%29.83 "Hg
* Reported Jul 11 2:00 AM — Jul 26 2:58 AM, Sagamihara, Weather by CustomWeather, © 2014

Note: Actual official high and low records may vary slightly from our data, if they occured in-between our weather recording intervals... More about our weather records

Advertising

Sagamihara weather history for previous 24 hours

 ConditionsComfort  
Time TempWeatherWind HumidityBarometerVisibility
2:58 AM
Jul 26
77 °FClear.3 mph90%29.94 "Hg7 mi
1:58 AM78 °FClear.No wind86%29.94 "Hg8 mi
12:58 AM79 °FClear.2 mph84%29.95 "Hg9 mi
12:04 AM81 °FClear.5 mph79%29.98 "Hg10 mi
11:58 PM
Jul 25
80 °FClear.3 mph80%29.96 "Hg10 mi
10:58 PM80 °FClear.7 mph80%29.97 "Hg10 mi
9:58 PM80 °FClear.7 mph79%29.97 "Hg10 mi
8:58 PM81 °FClear.7 mph78%29.97 "Hg10 mi
7:58 PM82 °FClear.10 mph76%29.94 "Hg10 mi
6:58 PM85 °FClear.9 mph71%29.92 "Hg10 mi
5:58 PM89 °FSunny.13 mph62%29.91 "Hg10 mi
4:58 PM92 °FPassing clouds.14 mph57%29.89 "Hg10 mi
3:58 PM94 °FScattered clouds.12 mph54%29.87 "Hg10 mi
2:58 PM94 °FSunny.10 mph52%29.86 "Hg10 mi
1:58 PM94 °FSunny.No wind52%29.87 "Hg10 mi
12:58 PM93 °FSunny.6 mph53%29.88 "Hg10 mi
11:58 AM92 °FSunny.6 mph56%29.89 "Hg10 mi
10:58 AM90 °FSunny.7 mph57%29.89 "Hg10 mi
9:58 AM88 °FSunny.6 mph57%29.89 "Hg10 mi
8:58 AM87 °FSunny.1 mph62%29.89 "Hg10 mi
7:58 AM85 °FSunny.2 mph68%29.90 "Hg10 mi
6:58 AM82 °FSunny.2 mph77%29.88 "Hg10 mi
5:58 AM78 °FSunny.3 mph86%29.87 "Hg9 mi
4:58 AM76 °FSunny.No wind90%29.85 "Hg8 mi
Weather by CustomWeather, © 2014

See weather overviewHow to use our weather pages